{"data":{"norad_id":61763,"intl_designator":"2024-199AE","name":"SIT-HSE","alt_names":[],"object_type":"PAYLOAD","status":"ACTIVE","operator":null,"country":"CIS","launch_date":"2024-11-04","launch_site_code":"VOSTO","launch_vehicle":null,"mission":null,"orbit_class":"UNKNOWN","rcs_meters":null,"size_class":null,"mass_kg":null,"dimensions":null,"purposes":[],"wikipedia_slug":null,"has_3d_model":false,"image_url":null,"decayed_at":null,"tle_current":{"epoch":"2026-05-25T03:46:25.078944Z","epoch_age_seconds":68308,"freshness":"FRESH","line1":"1 61763U 24199AE  26145.15723471  .00033547  00000+0  57887-3 0  9995","line2":"2 61763  97.3012  21.0608 0005324  34.3438 325.8157 15.50937843134018","mean_motion":15.50937843,"eccentricity":0.0005324,"inclination_deg":97.3012,"raan_deg":21.0608,"arg_perigee_deg":34.3438,"mean_anomaly_deg":325.8157,"bstar":0.00057887,"rev_number":13401,"period_min":92.847047771727,"perigee_km":410.37045730287,"apogee_km":417.60271049501,"semimajor_km":6792.1235838989,"source":"CELESTRAK","updated_at":"2026-05-25T13:38:02.557653Z"}}}